Regional Weather Roundup
Issued by NWS Nashville, TN

Home | Current Version | Previous Version | Text Only | Print | Product List | Glossary On
Versions: 1 2 3 4 5 6 7 8 9 10 11 12 13 14 15 16 17 18 19 20 21 22 23 24 25 26 27 28 29 30 31 32 33 34 35 36 37 38 39 40 41 42 43 44 45 46 47 48 49 50
000
ASUS44 KOHX 190610
RWROHX
MIDDLE TENNESSEE HOURLY WEATHER ROUNDUP
NATIONAL WEATHER SERVICE NASHVILLE TN
100 AM CDT SAT AUG 19 2017

NOTE: "FAIR" INDICATES FEW OR NO CLOUDS BELOW 12,000 FEET WITH
NO SIGNIFICANT WEATHER AND/OR OBSTRUCTIONS TO VISIBILITY.

* THESE REPORTS ARE NOT UNDER NWS QUALITY CONTROL AND MAY NOT
  REPORT WEATHER SUCH AS PRECIPITATION AND FOG.


TNZ005>011-023>034-057-059-062>066-078-080-190700
...NORTHERN MIDDLE TENNESSEE...

CITY           SKY/WX    TMP DP  RH WIND       PRES   REMARKS
CLARKSVILLE    MOCLDY    72  67  84 SW3       29.98S
CROSSVILLE     CLEAR     63  62  97 CALM      30.05S
GALLATIN       CLEAR     68  66  94 CALM      30.01S
DICKSON        CLEAR     69  66  90 CALM      30.00S
LEBANON        CLEAR     67  65  93 CALM      29.98S
NASHVILLE      CLEAR     70  67  90 S3        29.99F
PORTLAND       CLEAR     68  66  94 CALM      29.98F
SMYRNA         CLEAR     68  66  93 CALM      29.99F
SPARTA         FOG       64  63  94 CALM      30.00S VSB 1
SPRINGFIELD    PTCLDY    70  66  88 CALM      29.97S
WEST NASHVILLE CLEAR     70  70 100 CALM      29.96F
$$
TNZ056-058-060-061-075>077-079-093>097-190700
...SOUTHERN MIDDLE TENNESSEE...

CITY           SKY/WX    TMP DP  RH WIND       PRES   REMARKS
COLUMBIA       CLEAR     68  68 100 CALM      29.98S
FAYETTEVILLE   CLEAR     70  68  94 CALM      30.00S
MCMINNVILLE    MOCLDY    66  66 100 CALM      30.01F VSB 1/4
MURFREESBORO   CLEAR     70  67  90 CALM      29.98F
PULASKI        CLOUDY    66  66 100 CALM      29.99F FOG
SHELBYVILLE    CLEAR     66  66 100 CALM      30.00S FOG
TULLAHOMA      CLEAR     66  63  88 CALM      30.02S
WINCHESTER     CLEAR     66  66 100 CALM      30.01S
$$


...KEY TO REMARKS...
VSB - VISIBILITY IN MILES
WCI - WIND CHILL INDEX
HX  - HEAT INDEX




USA.gov is the U.S. government's official web portal to all federal, state and local government web resources and services.